QPF
0.00 0.00 0.00 0.00 0.00 0.00 0.00 0.00 0.00 0.00 0.00 0.00 0.00 0.00 0.00 0.00 0.00 0.00 0.00 0.00 0.00 0.00 0.00 0.00 0.00 0.00 0.00 0.00 0.00 0.00 0.00 0.00 0.00 0.00 0.00 0.00 0.00 0.00 0.00 0.00 0.00 0.00 0.00 0.00 0.00
0.00 0.00 0.00 0.00 0.00 0.00 0.00 0.00 0.00 0.00 0.00 0.00 0.00 0.00 0.00 0.00 0.00 0.00 0.00 0.00 0.00 0.00 0.00 0.00 0.00 0.00 0.00 0.00 0.00 0.00 0.00 0.00 0.00 0.00 0.00 0.00 0.00 0.00 0.00 0.00 0.00 0.00 0.00 0.00 0.00
0.00 0.00 0.00 0.00 0.00 0.00 0.00 0.00 0.00 0.00 0.00 0.00 0.00 0.00 0.00 0.00 0.00 0.00 0.00 0.00 0.00 0.00 0.00 0.00 0.00 0.00 0.00 0.00 0.00 0.00 0.00 0.00 0.00 0.00 0.00 0.00 0.00 0.00 0.00 0.00 0.00 0.00 0.00 0.00 0.00
0.00 0.00 0.00 0.00 0.00 0.00 0.00 0.00 0.00 0.00 0.00 0.00 0.00 0.00 0.00 0.00 0.00 0.00 0.00 0.00 0.00 0.00 0.00 0.00 0.00 0.00 0.00 0.00 0.00 0.00 0.00 0.00 0.00 0.00 0.00 0.00 0.00 0.00 0.00 0.00 0.00 0.00 0.00 0.00 0.00
0.00 0.00 0.00 0.00 0.00 0.00 0.00 0.00 0.00 0.00 0.00 0.00 0.00 0.00 0.00 0.00 0.00 0.00 0.00 0.00 0.00 0.00 0.00 0.00 0.00 0.00 0.00 0.00 0.00 0.00 0.00 0.00 0.00 0.00 0.00 0.00 0.00 0.00 0.00 0.00 0.00 0.00 0.00 0.00 0.00
0.00 0.00 0.00 0.00 0.00 0.00 0.00 0.00 0.00 0.00 0.00 0.00 0.00 0.00 0.00 0.00 0.00 0.00 0.00 0.00 0.00 0.00 0.00 0.00 0.00 0.00 0.00 0.00 0.00 0.00 0.00 0.00 0.00 0.00 0.00 0.00 0.00 0.00 0.00 0.00 0.00 0.00 0.00 0.00 0.00
0.00 0.00 0.00 0.00 0.00 0.00 0.00 0.00 0.00 0.00 0.00 0.00 0.00 0.00 0.00 0.00 0.00 0.00 0.00 0.00 0.00 0.00 0.00 0.00 0.00 0.00 0.00 0.00 0.00 0.00 0.00 0.00 0.00 0.00 0.00 0.00 0.00 0.00 0.00 0.00 0.00 0.00 0.00 0.00 0.00
0.00 0.00 0.00 0.00 0.00 0.00 0.00 0.00 0.00 0.00 0.00 0.00 0.00 0.00 0.00 0.00 0.00 0.00 0.00 0.00 0.00 0.00 0.00 0.00 0.00 0.00 0.00 0.00 0.00 0.00 0.00 0.00 0.00 0.00 0.00 0.00 0.00 0.00 0.00 0.00 0.00 0.00 0.00 0.00 0.00
0.00 0.00 0.00 0.00 0.00 0.00 0.00 0.00 0.00 0.00 0.00 0.00 0.00 0.00 0.00 0.00 0.00 0.00 0.00 0.00 0.00 0.00 0.00 0.00 0.00 0.00 0.00 0.00 0.00 0.00 0.00 0.00 0.00 0.00 0.00 0.00 0.00 0.00 0.00 0.00 0.00 0.00 0.00 0.00 0.00
0.00 0.00 0.00 0.00 0.00 0.00 0.00 0.00 0.00 0.00 0.00 0.00 0.00 0.00 0.00 0.00 0.00 0.00 0.00 0.00 0.00 0.00 0.00 0.00 0.00 0.00 0.00 0.00 0.00 0.00 0.00 0.00 0.00 0.00 0.00 0.00 0.00 0.00 0.00 0.00 0.00 0.00 0.00 0.00 0.00
0.00 0.00 0.00 0.00 0.00 0.00 0.00 0.00 0.00 0.00 0.00 0.00 0.00 0.00 0.00 0.00 0.00 0.00 0.00 0.00 0.00 0.00 0.00 0.00 0.00 0.00 0.00 0.00 0.00 0.00 0.00 0.00 0.00 0.00 0.00 0.00 0.00 0.00 0.00 0.00 0.00 0.00 0.00 0.00 0.00
0.00 0.00 0.00 0.00 0.00 0.00 0.00 0.00 0.00 0.00 0.00 0.00 0.00 0.00 0.00 0.00 0.00 0.00 0.00 0.00 0.00 0.00 0.00 0.00 0.00 0.00 0.00 0.00 0.00 0.00 0.00 0.00 0.00 0.00 0.00 0.00 0.00 0.00 0.00 0.00 0.00 0.00 0.00 0.00 0.00
0.00 0.00 0.00 0.00 0.00 0.00 0.00 0.00 0.00 0.00 0.00 0.00 0.00 0.00 0.00 0.00 0.00 0.00 0.00 0.00 0.00 0.00 0.00 0.00 0.00 0.00 0.00 0.00 0.00 0.00 0.00 0.00 0.00 0.00 0.00 0.00 0.00 0.00 0.00 0.00 0.00 0.00 0.00 0.00 0.00
0.00 0.00 0.00 0.00 0.00 0.00 0.00 0.00 0.00 0.00 0.00 0.00 0.00 0.00 0.00 0.00 0.00 0.00 0.00 0.00 0.00 0.00 0.00 0.00 0.00 0.00 0.00 0.00 0.00 0.00 0.00 0.00 0.00 0.00 0.00 0.00 0.00 0.00 0.00 0.00 0.00 0.00 0.00 0.00 0.00
0.00 0.00 0.00 0.00 0.00 0.00 0.00 0.00 0.00 0.00 0.00 0.00 0.00 0.00 0.00 0.00 0.00 0.00 0.00 0.00 0.00 0.00 0.00 0.00 0.00 0.00 0.00 0.00 0.00 0.00 0.00 0.00 0.00 0.00 0.00 0.00 0.00 0.00 0.00 0.00 0.00 0.00 0.00 0.00 0.00
0.00 0.00 0.00 0.00 0.00 0.00 0.00 0.00 0.00 0.00 0.00 0.00 0.00 0.00 0.00 0.00 0.00 0.00 0.00 0.00 0.00 0.00 0.00 0.00 0.00 0.00 0.00 0.00 0.00 0.00 0.00 0.00 0.00 0.00 0.00 0.00 0.00 0.00 0.00 0.00 0.00 0.00 0.00 0.00 0.00
0.00 0.00 0.00 0.00 0.00 0.00 0.00 0.00 0.00 0.00 0.00 0.00 0.00 0.00 0.00 0.00 0.00 0.00 0.00 0.00 0.00 0.00 0.00 0.00 0.00 0.00 0.00 0.00 0.00 0.00 0.00 0.00 0.00 0.00 0.00 0.00 0.00 0.00 0.00 0.00 0.00 0.00 0.00 0.00 0.00
0.00 0.00 0.00 0.00 0.00 0.00 0.00 0.00 0.00 0.00 0.00 0.00 0.00 0.00 0.00 0.00 0.00 0.00 0.00 0.00 0.00 0.00 0.00 0.00 0.00 0.00 0.00 0.00 0.00 0.00 0.00 0.00 0.00 0.00 0.00 0.00 0.00 0.00 0.00 0.00 0.00 0.00 0.00 0.00 0.00
0.00 0.00 0.00 0.00 0.00 0.00 0.00 0.00 0.00 0.00 0.00 0.00 0.00 0.00 0.00 0.00 0.00 0.00 0.00 0.00 0.00 0.00 0.00 0.00 0.00 0.00 0.00 0.00 0.00 0.00 0.00 0.00 0.00 0.00 0.00 0.00 0.00 0.00 0.00 0.00 0.00 0.00 0.00 0.00 0.00
0.00 0.00 0.00 0.00 0.00 0.00 0.00 0.00 0.00 0.00 0.00 0.00 0.00 0.00 0.00 0.00 0.00 0.00 0.00 0.00 0.00 0.00 0.00 0.00 0.00 0.00 0.00 0.00 0.00 0.00 0.00 0.00 0.00 0.00 0.00 0.00 0.00 0.00 0.00 0.00 0.00 0.00 0.00 0.00 0.00
0.00 0.00 0.00 0.00 0.00 0.00 0.00 0.00 0.00 0.00 0.00 0.00 0.00 0.00 0.00 0.00 0.00 0.00 0.00 0.00 0.00 0.00 0.00 0.00 0.00 0.00 0.00 0.00 0.00 0.00 0.00 0.00 0.00 0.00 0.00 0.00 0.00 0.00 0.00 0.00 0.00 0.00 0.00 0.00 0.00
0.00 0.00 0.00 0.00 0.00 0.00 0.00 0.00 0.00 0.00 0.00 0.00 0.00 0.00 0.00 0.00 0.00 0.00 0.00 0.00 0.00 0.00 0.00 0.00 0.00 0.00 0.00 0.00 0.00 0.00 0.00 0.00 0.00 0.00 0.00 0.00 0.00 0.00 0.00 0.00 0.00 0.00 0.00 0.00 0.00
0.01 0.00 0.00 0.00 0.00 0.00 0.00 0.00 0.00 0.00 0.00 0.00 0.00 0.00 0.00 0.00 0.00 0.00 0.00 0.00 0.00 0.00 0.00 0.00 0.00 0.00 0.00 0.00 0.00 0.00 0.00 0.00 0.00 0.00 0.00 0.00 0.00 0.00 0.00 0.00 0.00 0.00 0.00 0.00 0.00
0.02 0.00 0.00 0.00 0.00 0.00 0.00 0.00 0.00 0.00 0.00 0.00 0.00 0.00 0.00 0.00 0.00 0.00 0.00 0.00 0.00 0.00 0.00 0.00 0.00 0.00 0.00 0.00 0.00 0.00 0.00 0.00 0.00 0.00 0.00 0.00 0.00 0.00 0.00 0.00 0.00 0.00 0.00 0.00 0.00
0.03 0.00 0.00 0.00 0.00 0.00 0.00 0.00 0.00 0.00 0.00 0.00 0.00 0.00 0.00 0.00 0.00 0.00 0.00 0.00 0.00 0.00 0.00 0.00 0.00 0.00 0.00 0.00 0.00 0.00 0.00 0.00 0.00 0.00 0.00 0.00 0.00 0.00 0.00 0.00 0.00 0.00 0.00 0.00 0.00
0.04 0.01 0.00 0.00 0.00 0.00 0.00 0.00 0.00 0.00 0.00 0.00 0.00 0.00 0.00 0.00 0.00 0.00 0.00 0.00 0.00 0.00 0.00 0.00 0.00 0.00 0.00 0.00 0.00 0.00 0.00 0.00 0.00 0.00 0.00 0.00 0.00 0.00 0.00 0.00 0.00 0.00 0.00 0.00 0.00
0.01 0.01 0.01 0.00 0.00 0.00 0.00 0.00 0.00 0.00 0.00 0.00 0.00 0.00 0.00 0.00 0.00 0.00 0.00 0.00 0.00 0.00 0.00 0.00 0.00 0.00 0.00 0.00 0.00 0.00 0.00 0.00 0.00 0.00 0.00 0.00 0.00 0.00 0.00 0.00 0.00 0.00 0.00 0.00 0.00
MSLP
1020.50 1020.17 1019.85 1019.44 1019.13 1018.73 1018.30 1017.89 1017.45 1017.10 1016.85 1016.58 1016.33 1016.14 1015.85 1015.52 1015.18 1015.23 1014.78 1014.51 1014.69 1014.87 1015.13 1015.16 1015.24 1015.38 1015.66 1016.41 1016.78 1017.23 1018.08 1018.75 1018.39 1018.28 1017.38 1017.56 1018.01 1018.58 1019.16 1019.78 1020.31 1020.43 1020.76 1021.12 1021.56
1020.82 1020.42 1020.07 1019.72 1019.30 1018.93 1018.51 1018.08 1017.66 1017.21 1016.84 1016.55 1016.24 1016.09 1016.03 1015.68 1015.27 1014.95 1014.38 1014.39 1014.43 1014.47 1014.82 1014.96 1015.24 1015.44 1016.05 1016.64 1017.04 1017.43 1018.02 1017.95 1017.68 1017.63 1017.50 1017.60 1018.08 1018.61 1019.38 1019.80 1020.12 1020.42 1020.83 1021.32 1021.66
1021.03 1020.69 1020.30 1019.88 1019.44 1018.92 1018.53 1018.15 1017.74 1017.28 1016.84 1016.49 1016.23 1016.01 1015.85 1015.80 1015.55 1014.50 1014.42 1014.50 1014.41 1014.41 1014.49 1014.73 1015.01 1015.33 1016.12 1016.60 1017.05 1017.24 1017.48 1017.37 1017.14 1017.13 1017.26 1017.60 1018.05 1018.47 1019.11 1019.56 1018.99 1019.21 1020.09 1021.24 1021.76
1021.19 1020.87 1020.44 1019.97 1019.46 1018.89 1018.38 1017.98 1017.65 1017.22 1016.76 1016.43 1016.07 1015.82 1015.80 1015.87 1015.64 1014.47 1014.44 1014.38 1014.39 1014.49 1014.52 1014.73 1015.00 1015.58 1016.37 1016.74 1016.94 1017.20 1017.22 1017.13 1016.92 1016.93 1017.22 1017.43 1017.63 1018.16 1018.57 1017.76 1018.13 1018.58 1019.31 1020.56 1021.12
1021.33 1020.97 1020.53 1020.02 1019.52 1018.96 1018.33 1017.76 1017.38 1016.97 1016.60 1016.26 1015.99 1015.70 1015.59 1015.91 1015.37 1014.90 1014.64 1014.48 1014.42 1014.59 1014.88 1014.87 1015.27 1015.65 1016.31 1016.72 1016.96 1017.05 1017.20 1017.14 1016.95 1017.12 1017.25 1017.46 1017.52 1017.93 1017.43 1017.52 1018.20 1018.85 1019.54 1019.96 1020.49
1021.30 1021.03 1020.63 1020.13 1019.56 1018.96 1018.27 1017.59 1017.06 1016.69 1016.31 1016.01 1015.78 1015.73 1015.70 1015.87 1014.72 1014.59 1014.59 1014.68 1014.78 1014.79 1015.15 1015.23 1015.46 1015.67 1016.27 1016.73 1017.00 1017.14 1017.20 1017.12 1017.12 1017.24 1017.46 1017.76 1017.74 1018.01 1016.90 1017.48 1018.35 1018.85 1019.04 1019.44 1019.81
1021.27 1020.92 1020.54 1020.07 1019.51 1018.86 1018.09 1017.34 1016.73 1016.25 1016.01 1015.70 1015.65 1015.59 1015.60 1014.97 1014.41 1014.63 1014.47 1014.86 1014.94 1014.98 1015.35 1015.60 1015.58 1016.04 1016.49 1017.01 1017.15 1017.22 1017.39 1017.12 1017.18 1017.16 1017.45 1017.78 1018.28 1017.42 1016.67 1017.63 1018.00 1018.38 1018.85 1019.29 1019.55
1021.02 1020.85 1020.46 1019.93 1019.35 1018.69 1017.83 1016.91 1016.42 1015.88 1015.59 1015.56 1015.54 1015.58 1015.21 1014.59 1014.61 1014.61 1014.82 1015.06 1015.11 1015.17 1015.51 1015.78 1015.74 1016.16 1016.70 1017.19 1017.47 1017.63 1017.76 1017.71 1017.09 1017.29 1017.21 1017.76 1016.96 1016.17 1016.49 1017.47 1017.70 1017.99 1018.51 1018.87 1018.96
1020.95 1020.64 1020.30 1019.81 1019.26 1018.53 1017.58 1016.51 1015.90 1015.55 1015.43 1015.50 1015.77 1015.53 1015.09 1014.60 1014.72 1014.77 1014.91 1015.24 1015.42 1015.59 1015.82 1015.91 1016.19 1017.10 1017.24 1017.58 1018.01 1018.17 1018.00 1017.93 1017.41 1016.97 1017.44 1017.64 1016.58 1015.64 1016.17 1016.97 1016.91 1017.14 1017.53 1017.98 1018.47
1020.97 1020.53 1020.18 1019.78 1019.10 1018.36 1017.39 1015.98 1015.58 1015.59 1015.55 1015.57 1015.71 1016.10 1015.09 1014.80 1014.81 1014.81 1014.95 1015.14 1015.52 1015.83 1016.04 1016.32 1017.06 1017.54 1018.11 1018.19 1017.99 1017.94 1018.17 1018.01 1017.71 1017.14 1017.52 1017.67 1016.25 1015.20 1015.47 1016.10 1015.44 1015.66 1016.36 1016.97 1017.40
1020.70 1020.56 1020.11 1019.74 1019.16 1018.35 1017.56 1016.10 1016.35 1016.45 1016.14 1015.52 1015.19 1015.03 1014.79 1014.87 1014.90 1014.99 1015.00 1015.32 1015.58 1016.04 1016.61 1017.08 1017.67 1017.29 1017.17 1017.26 1017.13 1017.32 1017.77 1017.96 1017.31 1017.26 1017.62 1017.02 1015.98 1015.15 1014.22 1014.71 1014.01 1014.16 1014.85 1015.51 1015.88
1020.59 1020.46 1020.11 1019.69 1019.18 1018.50 1018.16 1018.47 1018.73 1019.14 1017.61 1015.68 1015.51 1015.23 1014.74 1014.70 1015.06 1015.09 1015.11 1015.59 1016.02 1016.48 1016.97 1017.71 1017.09 1016.22 1016.60 1016.98 1017.39 1017.67 1018.07 1017.89 1017.56 1017.57 1018.01 1017.20 1015.75 1014.71 1013.85 1012.40 1012.26 1012.36 1013.12 1014.13 1015.42
1020.33 1020.34 1020.07 1019.52 1019.04 1018.73 1019.03 1019.29 1019.33 1019.43 1018.90 1016.01 1015.17 1014.90 1014.67 1014.81 1014.77 1014.82 1015.13 1015.47 1016.04 1016.84 1017.26 1017.46 1016.26 1016.18 1016.56 1017.15 1017.61 1017.88 1018.16 1018.11 1018.13 1018.12 1018.13 1017.80 1015.50 1014.00 1012.07 1011.69 1010.92 1010.91 1011.63 1012.87 1013.54
1019.97 1019.92 1019.93 1019.30 1019.19 1019.63 1019.47 1019.43 1019.48 1019.62 1018.97 1016.18 1015.20 1014.40 1014.66 1014.73 1015.01 1014.81 1014.94 1015.22 1015.98 1016.20 1017.25 1017.18 1016.24 1016.41 1016.81 1017.15 1017.48 1018.08 1017.49 1018.05 1018.55 1019.22 1019.36 1018.48 1014.18 1013.89 1012.31 1011.35 1010.34 1009.50 1010.74 1011.30 1012.21
1019.62 1019.64 1019.67 1019.65 1019.99 1019.76 1019.69 1019.48 1019.61 1019.64 1018.30 1015.46 1014.98 1014.87 1014.79 1015.08 1015.25 1015.29 1015.26 1015.15 1015.61 1016.15 1016.77 1015.65 1016.21 1016.64 1016.92 1016.74 1017.11 1017.60 1017.83 1018.60 1019.12 1019.65 1019.81 1018.70 1017.73 1012.71 1012.33 1011.51 1009.95 1008.63 1009.59 1010.71 1011.79
1019.34 1019.34 1019.44 1019.76 1019.98 1019.77 1019.63 1019.55 1019.61 1019.84 1017.36 1015.10 1014.73 1014.84 1015.16 1015.18 1015.28 1015.56 1015.58 1015.61 1015.87 1016.16 1016.37 1016.15 1016.23 1016.40 1016.49 1017.17 1017.49 1017.93 1018.42 1019.18 1020.01 1020.21 1019.13 1016.32 1016.14 1012.47 1011.74 1010.07 1009.42 1008.61 1009.00 1010.25 1011.48
1018.88 1019.06 1019.30 1019.81 1019.41 1019.21 1019.51 1019.77 1020.22 1018.43 1016.25 1014.89 1014.60 1015.00 1015.27 1015.40 1015.54 1015.65 1015.86 1016.05 1016.17 1016.53 1016.38 1016.15 1016.13 1016.23 1016.46 1017.44 1018.07 1018.27 1019.17 1020.19 1020.09 1020.09 1017.13 1015.66 1015.42 1010.59 1009.83 1008.98 1008.29 1008.19 1008.81 1010.01 1011.14
1018.16 1018.62 1018.76 1019.03 1019.35 1019.15 1019.35 1020.16 1018.92 1016.45 1015.42 1014.59 1014.55 1014.86 1015.05 1014.97 1015.21 1015.64 1015.87 1016.12 1015.73 1015.80 1016.18 1016.17 1015.87 1015.95 1016.08 1016.50 1017.22 1018.31 1018.85 1019.91 1019.25 1019.53 1015.99 1015.24 1012.28 1008.42 1007.94 1007.40 1007.44 1008.19 1008.68 1009.78 1010.73
1017.58 1018.34 1018.32 1018.17 1018.90 1019.41 1019.27 1018.87 1015.38 1015.34 1014.54 1014.36 1014.67 1014.93 1014.83 1014.57 1015.08 1015.65 1015.66 1015.09 1014.23 1014.30 1014.59 1014.96 1014.93 1015.68 1016.17 1016.40 1016.89 1018.38 1018.42 1017.71 1018.56 1019.66 1017.17 1012.14 1008.94 1007.65 1007.13 1006.96 1007.49 1007.91 1008.89 1009.54 1010.18
1016.65 1017.15 1016.65 1016.95 1018.10 1019.08 1019.25 1015.93 1014.56 1013.49 1013.15 1013.22 1013.53 1013.31 1013.91 1014.22 1014.91 1015.19 1014.64 1013.32 1013.16 1012.45 1011.86 1013.17 1014.79 1015.19 1016.37 1016.87 1017.10 1017.08 1017.28 1018.21 1018.57 1018.37 1016.16 1009.60 1006.53 1006.04 1006.24 1006.10 1006.56 1007.27 1007.63 1008.33 1009.25
1015.47 1016.20 1015.45 1016.06 1017.55 1018.34 1016.93 1015.33 1014.26 1013.29 1012.90 1012.96 1012.70 1012.90 1012.91 1013.35 1013.56 1013.72 1012.81 1012.18 1012.05 1012.35 1012.65 1013.24 1014.19 1015.48 1016.62 1016.64 1016.29 1017.73 1017.59 1017.60 1017.41 1016.53 1015.16 1011.57 1003.84 1003.07 1003.61 1004.37 1005.29 1005.68 1006.30 1007.66 1008.44
1014.63 1015.20 1015.38 1015.27 1016.42 1015.58 1014.28 1013.53 1013.09 1012.68 1012.87 1012.69 1012.22 1011.90 1012.07 1012.33 1012.57 1012.81 1012.29 1011.25 1010.72 1011.54 1012.89 1012.95 1013.51 1014.70 1014.57 1015.10 1015.75 1015.94 1015.56 1015.84 1016.05 1015.01 1014.11 1012.36 999.80 1001.55 1002.13 1003.14 1004.13 1004.89 1006.03 1006.77 1007.64
1013.38 1014.04 1014.94 1014.41 1013.85 1013.71 1013.45 1013.25 1012.75 1012.25 1011.86 1011.66 1011.74 1011.19 1011.10 1011.20 1011.92 1011.09 1010.49 1009.92 1010.82 1011.19 1011.42 1012.46 1013.40 1014.64 1013.52 1014.95 1015.08 1014.94 1014.66 1013.96 1013.35 1012.58 1010.54 1011.11 1000.37 1000.78 1001.61 1002.69 1003.44 1004.19 1005.20 1006.08 1006.87
1012.26 1013.47 1014.15 1013.49 1012.20 1011.99 1012.00 1012.33 1012.25 1011.32 1011.23 1011.09 1010.77 1010.94 1010.94 1010.59 1010.25 1009.60 1009.94 1010.12 1010.39 1010.52 1010.46 1010.98 1012.12 1012.28 1011.88 1010.46 1011.68 1012.97 1012.67 1011.93 1011.81 1010.19 1009.16 1005.55 1002.55 999.70 1000.66 1002.21 1002.94 1003.49 1004.18 1004.77 1005.61
1010.92 1010.28 1010.59 1011.49 1011.23 1011.16 1011.00 1010.13 1010.47 1010.54 1010.46 1010.33 1010.17 1010.02 1009.97 1010.05 1009.51 1009.09 1009.25 1010.10 1010.42 1010.65 1011.12 1011.11 1010.77 1010.66 1009.98 1009.11 1010.90 1010.95 1010.75 1010.20 1010.01 1006.99 1005.77 1002.46 1003.86 998.93 998.17 1001.41 1000.64 1001.77 1001.91 1002.64 1004.37
1009.40 1009.27 1009.79 1008.92 1009.34 1010.08 1009.82 1008.97 1008.83 1008.92 1009.42 1008.93 1008.66 1008.70 1008.97 1008.46 1007.79 1007.22 1008.26 1008.88 1009.22 1010.88 1011.28 1011.26 1010.00 1010.16 1009.35 1008.54 1009.50 1010.22 1008.22 1008.49 1006.81 1003.92 1005.14 1003.28 1001.72 996.87 999.85 1000.19 999.97 999.83 1000.39 1001.56 1002.43
1008.47 1007.84 1008.34 1006.55 1008.01 1008.12 1006.78 1007.17 1007.07 1007.53 1007.21 1007.04 1006.69 1007.31 1007.37 1006.34 1006.19 1005.96 1007.13 1008.21 1008.95 1009.32 1010.28 1011.26 1010.85 1010.14 1008.37 1008.41 1009.46 1009.34 1004.70 1006.17 1005.13 1001.98 1003.05 1001.41 997.27 997.02 998.53 999.17 998.13 998.72 999.72 999.87 1000.33
Thickness
5723 5726 5729 5732 5735 5738 5742 5745 5748 5751 5752 5754 5755 5757 5758 5760 5760 5758 5755 5760 5758 5756 5753 5750 5746 5741 5736 5724 5720 5711 5690 5681 5690 5685 5701 5698 5696 5690 5684 5681 5677 5679 5677 5675 5671
5717 5721 5724 5728 5731 5735 5738 5742 5745 5748 5751 5752 5755 5755 5755 5757 5758 5754 5763 5762 5760 5757 5753 5748 5740 5738 5725 5720 5713 5702 5687 5694 5697 5694 5698 5699 5694 5688 5683 5677 5677 5675 5669 5665 5664
5711 5715 5719 5722 5726 5731 5734 5737 5741 5744 5748 5751 5752 5754 5754 5754 5749 5754 5760 5759 5759 5757 5754 5749 5743 5737 5723 5719 5712 5703 5695 5701 5703 5701 5699 5696 5692 5684 5681 5676 5686 5685 5675 5662 5658
5705 5709 5713 5717 5721 5726 5730 5734 5737 5740 5744 5747 5750 5751 5751 5750 5726 5756 5758 5757 5756 5754 5751 5745 5737 5727 5714 5713 5710 5706 5704 5703 5704 5702 5698 5695 5692 5688 5681 5696 5689 5686 5678 5664 5660
5698 5702 5706 5711 5715 5720 5725 5730 5734 5737 5740 5744 5745 5746 5746 5737 5738 5751 5753 5754 5753 5750 5742 5740 5731 5724 5715 5710 5708 5704 5701 5700 5701 5696 5694 5692 5690 5687 5688 5690 5682 5675 5668 5665 5662
5692 5695 5699 5704 5708 5713 5719 5726 5730 5734 5737 5740 5741 5741 5738 5721 5748 5749 5748 5747 5744 5742 5736 5734 5726 5724 5712 5708 5704 5700 5696 5694 5693 5692 5689 5684 5685 5686 5695 5679 5674 5670 5670 5665 5661
5683 5688 5692 5696 5702 5708 5714 5720 5726 5730 5732 5735 5736 5736 5731 5730 5744 5743 5743 5740 5738 5736 5728 5726 5724 5718 5709 5702 5700 5695 5691 5689 5685 5687 5684 5679 5675 5677 5694 5677 5676 5670 5667 5660 5656
5677 5680 5684 5689 5694 5700 5707 5716 5721 5725 5728 5728 5728 5728 5720 5738 5737 5736 5735 5732 5731 5729 5724 5720 5719 5709 5704 5697 5689 5686 5681 5680 5687 5679 5681 5678 5680 5692 5680 5672 5678 5666 5659 5656 5653
5670 5674 5677 5682 5687 5695 5702 5712 5717 5720 5721 5721 5718 5717 5713 5730 5727 5729 5728 5722 5720 5718 5715 5713 5707 5695 5693 5682 5675 5669 5673 5671 5672 5674 5673 5667 5682 5694 5674 5666 5677 5670 5660 5655 5651
5662 5667 5671 5674 5681 5688 5696 5708 5711 5711 5712 5712 5710 5702 5711 5714 5718 5720 5719 5716 5710 5707 5704 5700 5683 5678 5670 5667 5662 5667 5661 5658 5663 5673 5661 5655 5670 5693 5683 5669 5684 5681 5666 5655 5651
5655 5657 5661 5666 5672 5679 5688 5697 5692 5692 5698 5702 5703 5702 5705 5709 5711 5709 5709 5704 5702 5696 5684 5679 5671 5670 5674 5669 5677 5672 5659 5655 5662 5661 5653 5655 5666 5681 5696 5674 5686 5679 5670 5658 5653
5645 5648 5652 5656 5662 5668 5673 5670 5669 5665 5670 5689 5687 5690 5698 5702 5696 5697 5699 5689 5684 5674 5671 5664 5664 5679 5676 5666 5662 5658 5651 5647 5650 5648 5639 5641 5655 5671 5681 5700 5697 5694 5680 5663 5648
5638 5639 5642 5647 5653 5656 5655 5655 5654 5651 5648 5675 5682 5685 5692 5691 5688 5690 5687 5681 5674 5661 5657 5653 5675 5669 5668 5657 5651 5645 5638 5640 5642 5633 5626 5614 5627 5650 5683 5684 5693 5693 5685 5663 5656
5629 5632 5632 5638 5642 5638 5642 5641 5642 5640 5624 5651 5674 5682 5682 5682 5677 5683 5680 5676 5665 5658 5646 5650 5664 5662 5657 5654 5644 5633 5642 5636 5630 5618 5608 5614 5641 5636 5665 5680 5685 5695 5674 5674 5657
5621 5622 5622 5624 5622 5628 5630 5630 5629 5631 5590 5649 5652 5670 5673 5671 5667 5669 5669 5668 5656 5650 5647 5662 5650 5649 5646 5649 5642 5635 5631 5624 5614 5603 5576 5597 5585 5635 5631 5657 5679 5690 5672 5660 5645
5610 5613 5612 5611 5611 5614 5616 5617 5619 5603 5581 5638 5643 5646 5654 5659 5659 5654 5655 5654 5650 5645 5641 5644 5642 5641 5643 5628 5630 5617 5617 5598 5567 5567 5553 5628 5613 5616 5634 5653 5666 5676 5668 5651 5629
5600 5601 5601 5598 5603 5605 5604 5602 5589 5571 5618 5637 5640 5634 5638 5641 5643 5641 5637 5633 5628 5623 5625 5636 5631 5630 5630 5624 5613 5613 5604 5582 5580 5567 5607 5574 5573 5650 5647 5649 5665 5674 5663 5642 5621
5591 5590 5592 5589 5587 5590 5586 5584 5564 5592 5611 5628 5626 5625 5627 5629 5631 5625 5621 5619 5622 5624 5609 5619 5629 5618 5618 5624 5613 5590 5596 5580 5568 5579 5621 5561 5585 5648 5639 5654 5656 5645 5639 5625 5610
5579 5577 5583 5582 5575 5571 5575 5559 5598 5600 5610 5614 5615 5610 5612 5623 5624 5612 5605 5612 5626 5626 5623 5602 5608 5602 5602 5602 5604 5581 5580 5590 5563 5456 5519 5616 5625 5630 5629 5637 5635 5631 5616 5615 5602
5571 5569 5580 5574 5564 5556 5541 5594 5594 5611 5613 5614 5613 5616 5603 5608 5603 5599 5600 5617 5624 5626 5636 5618 5598 5594 5579 5579 5576 5582 5574 5564 5541 5550 5527 5630 5640 5635 5632 5645 5640 5630 5619 5614 5597
5560 5555 5569 5567 5547 5539 5556 5568 5582 5599 5607 5601 5599 5603 5604 5603 5601 5589 5611 5619 5617 5613 5608 5598 5595 5582 5565 5560 5567 5550 5551 5552 5552 5535 5546 5593 5631 5632 5646 5644 5641 5634 5622 5606 5589
5549 5550 5545 5547 5539 5544 5566 5564 5582 5586 5586 5586 5588 5594 5592 5591 5585 5575 5589 5614 5615 5601 5585 5582 5571 5566 5584 5551 5543 5552 5566 5567 5552 5550 5493 5507 5638 5658 5654 5639 5631 5622 5604 5594 5577
5540 5541 5526 5531 5536 5541 5547 5548 5564 5565 5581 5580 5576 5579 5588 5585 5575 5580 5601 5611 5592 5589 5578 5567 5539 5535 5568 5532 5531 5539 5541 5549 5545 5537 5555 5523 5626 5645 5624 5618 5610 5606 5591 5577 5567
5526 5516 5511 5509 5534 5545 5553 5546 5549 5556 5567 5562 5568 5563 5565 5565 5580 5583 5580 5584 5575 5580 5579 5574 5536 5544 5564 5595 5556 5533 5533 5554 5562 5560 5552 5568 5595 5638 5641 5622 5610 5584 5576 5572 5560
5518 5517 5514 5505 5519 5525 5539 5553 5555 5548 5540 5544 5545 5557 5559 5553 5564 5566 5572 5563 5553 5558 5555 5550 5544 5546 5558 5578 5550 5546 5550 5551 5537 5570 5561 5595 5564 5621 5641 5601 5613 5596 5596 5585 5545
5511 5510 5499 5513 5517 5508 5513 5532 5541 5556 5532 5537 5545 5541 5545 5548 5562 5566 5558 5558 5557 5512 5519 5514 5542 5537 5537 5559 5532 5524 5561 5560 5571 5584 5557 5565 5565 5638 5603 5597 5597 5595 5591 5579 5561
5497 5502 5496 5514 5499 5499 5515 5521 5534 5543 5540 5545 5546 5537 5534 5552 5558 5558 5548 5535 5530 5524 5502 5488 5490 5484 5516 5541 5499 5475 5566 5563 5567 5586 5572 5560 5607 5618 5597 5585 5591 5582 5578 5578 5578